Tracking 20092 objects as of 14-Dec-2019
HD Live streaming from Space Station
objects crossing your sky now

USA 28

Track USA 28 now!
USA 28 is classified as:


NORAD ID: 18583
Int'l Code: 1987-097A
Perigee: 36,232.5 km
Apogee: 36,429.1 km
Inclination: 14.1 °
Period: 1,463.6 minutes
Semi major axis: 42701 km
RCS: Unknown
Launch date: November 29, 1987
Source: United States (US)
Launch site: AIR FORCE EASTERN TEST RANGE (AFETR)
aabbcc
Your satellite tracking list
Your tracking list is empty




NASA's NSSDC Master Catalog

Two Line Element Set (TLE):
1 18583U 87097A   19346.50013095 -.00000056 +00000-0 +00000-0 0  9994
2 18583 014.1299 354.6797 0023019 230.3656 136.3752 00.98386169001327
Source of the keplerian elements: McCants